TimeCDT,TemperatureF,Dew PointF,Humidity,Sea Level PressureIn,VisibilityMPH,Wind Direction,Wind SpeedMPH,Gust SpeedMPH,PrecipitationIn,Events,Conditions,WindDirDegrees,DateUTC
12:53 AM,48.9,46.9,93,29.72,10.0,North,8.1,-,N/A,,Overcast,360,2013-05-22 05:53:00
1:53 AM,48.9,46.9,93,29.71,10.0,North,9.2,-,N/A,,Overcast,360,2013-05-22 06:53:00
2:53 AM,48.0,46.9,96,29.71,10.0,North,9.2,-,N/A,,Overcast,360,2013-05-22 07:53:00
3:53 AM,48.0,46.0,93,29.72,10.0,North,8.1,-,0.00,Rain,Light Rain,360,2013-05-22 08:53:00
4:53 AM,46.9,46.0,97,29.73,5.0,North,11.5,-,0.00,,Light Drizzle,10,2013-05-22 09:53:00
5:53 AM,46.9,46.0,97,29.73,10.0,North,8.1,-,0.02,Rain,Light Rain,350,2013-05-22 10:53:00
6:53 AM,46.9,46.0,97,29.73,10.0,NNE,6.9,-,0.00,,Overcast,20,2013-05-22 11:53:00
7:53 AM,48.0,46.0,93,29.73,8.0,North,8.1,-,0.00,,Light Drizzle,360,2013-05-22 12:53:00
8:53 AM,48.9,48.0,97,29.73,10.0,North,11.5,-,0.00,,Overcast,10,2013-05-22 13:53:00
9:53 AM,50.0,46.9,89,29.75,10.0,North,12.7,-,N/A,,Overcast,350,2013-05-22 14:53:00
10:53 AM,50.0,48.0,93,29.76,9.0,NNE,11.5,-,0.02,Rain,Light Rain,20,2013-05-22 15:53:00
11:30 AM,50.0,48.2,94,29.76,10.0,North,11.5,19.6,0.02,Rain,Light Rain,10,2013-05-22 16:30:00
11:53 AM,51.1,48.9,92,29.77,10.0,North,9.2,-,0.02,Rain,Light Rain,360,2013-05-22 16:53:00
12:45 PM,51.8,48.2,88,29.77,10.0,North,12.7,-,0.00,Rain,Light Rain,10,2013-05-22 17:45:00
12:53 PM,53.1,48.9,86,29.78,10.0,North,11.5,-,0.00,Rain,Light Rain,10,2013-05-22 17:53:00
1:53 PM,53.1,48.9,86,29.79,10.0,North,13.8,-,0.02,Rain,Light Rain,10,2013-05-22 18:53:00
2:22 PM,53.6,50.0,88,29.78,10.0,North,10.4,-,0.00,Rain,Light Rain,360,2013-05-22 19:22:00
2:53 PM,53.1,48.9,86,29.80,6.0,North,15.0,21.9,0.02,Rain,Light Rain,10,2013-05-22 19:53:00
3:21 PM,53.6,48.2,82,29.80,8.0,NNE,12.7,26.5,0.01,Rain,Light Rain,20,2013-05-22 20:21:00
3:53 PM,54.0,50.0,86,29.81,10.0,North,11.5,-,0.01,Rain,Light Rain,360,2013-05-22 20:53:00
4:53 PM,54.0,50.0,86,29.83,10.0,North,15.0,-,0.01,,Overcast,10,2013-05-22 21:53:00
5:27 PM,53.6,48.2,82,29.83,10.0,North,16.1,25.3,N/A,,Overcast,10,2013-05-22 22:27:00
5:53 PM,53.1,48.9,86,29.85,10.0,North,11.5,26.5,N/A,,Overcast,10,2013-05-22 22:53:00
6:26 PM,53.6,48.2,82,29.84,10.0,NNE,16.1,26.5,N/A,,Overcast,20,2013-05-22 23:26:00
6:53 PM,53.1,48.0,83,29.87,10.0,North,13.8,24.2,N/A,,Overcast,10,2013-05-22 23:53:00
7:16 PM,51.8,46.4,82,29.86,10.0,NNE,20.7,24.2,N/A,,Overcast,20,2013-05-23 00:16:00
7:53 PM,52.0,46.9,83,29.89,10.0,NNE,18.4,31.1,0.00,Rain,Light Rain,20,2013-05-23 00:53:00
8:53 PM,51.1,48.0,89,29.92,10.0,NNE,13.8,-,0.00,Rain,Light Rain,20,2013-05-23 01:53:00
9:11 PM,51.8,48.2,88,29.91,10.0,NNE,11.5,-,0.01,Rain,Light Rain,20,2013-05-23 02:11:00
9:25 PM,51.8,48.2,88,29.92,10.0,North,9.2,-,0.01,Rain,Light Rain,10,2013-05-23 02:25:00
9:53 PM,51.1,48.0,89,29.95,10.0,North,9.2,-,0.01,,Overcast,10,2013-05-23 02:53:00
10:53 PM,54.0,45.0,72,29.98,10.0,NNE,15.0,29.9,N/A,,Overcast,30,2013-05-23 03:53:00
11:53 PM,54.0,43.0,66,30.00,10.0,NNE,11.5,-,N/A,,Mostly Cloudy,20,2013-05-23 04:53:00